Total_Precipitation_Accumulation
1.88 2.10 2.40 2.89 3.66 4.40 5.08 5.18 5.36 4.84 4.18 3.60 3.16 3.06 2.88 2.58 2.50 2.39 2.23 2.07 1.86 1.74 1.87 1.71 1.68 1.58 1.63 1.64 1.73 1.85 1.88 1.63 1.78 2.10 1.73 1.21 0.92 0.84 0.78 0.71 0.72 0.71 0.77
1.97 2.34 2.88 3.26 3.27 3.79 4.49 4.54 4.21 3.95 3.48 3.06 2.85 2.68 2.61 2.32 2.16 2.03 2.01 1.84 1.69 1.65 1.63 1.65 1.50 1.47 1.54 1.54 1.58 1.71 1.68 1.50 1.69 2.04 2.12 1.65 1.28 0.99 0.70 0.67 0.67 0.73 0.87
1.86 2.29 2.70 3.12 3.08 3.44 3.55 3.17 2.97 3.01 2.92 2.72 2.59 2.48 2.43 2.24 1.97 1.78 1.76 1.66 1.47 1.43 1.38 1.37 1.39 1.46 1.31 1.36 1.48 1.62 1.75 1.61 1.51 1.76 2.09 1.84 1.49 1.20 0.90 0.80 0.88 1.01 1.11
1.33 1.61 1.95 2.36 2.55 2.63 2.55 2.49 2.44 2.43 2.59 2.58 2.34 2.15 1.85 1.71 1.64 1.53 1.57 1.59 1.41 1.33 1.27 1.25 1.36 1.40 1.33 1.44 1.26 1.33 1.57 1.72 1.54 1.52 1.57 1.57 1.66 1.66 1.29 0.94 0.86 0.98 1.09
0.99 1.14 1.25 1.46 1.74 1.99 2.04 2.00 2.23 2.32 2.32 2.29 2.23 2.21 1.94 1.74 1.65 1.74 1.93 1.82 1.55 1.29 1.15 1.18 1.29 1.36 1.35 1.39 1.38 1.43 1.38 1.44 1.43 1.44 1.44 1.50 1.65 1.58 1.50 1.26 1.03 1.00 0.90
0.75 0.93 0.98 1.04 1.17 1.32 1.42 1.52 1.76 1.97 2.03 1.98 1.98 2.01 1.97 1.87 1.65 1.60 1.64 1.57 1.43 1.26 1.13 1.14 1.30 1.32 1.31 1.31 1.33 1.33 1.28 1.33 1.38 1.40 1.44 1.53 1.50 1.43 1.56 1.44 1.23 1.14 0.95
0.55 0.66 0.73 0.81 0.91 0.94 1.01 1.15 1.35 1.51 1.64 1.70 1.73 1.79 1.95 1.85 1.62 1.43 1.43 1.38 1.23 1.12 1.08 1.08 1.30 1.39 1.36 1.35 1.38 1.36 1.36 1.43 1.46 1.44 1.48 1.49 1.44 1.46 1.60 1.60 1.37 1.28 1.17
0.47 0.45 0.50 0.56 0.70 0.76 0.82 0.93 1.00 1.10 1.23 1.45 1.65 1.61 1.70 1.55 1.42 1.52 1.42 1.27 1.08 1.07 1.25 1.34 1.35 1.35 1.38 1.38 1.57 1.47 1.45 1.52 1.54 1.45 1.66 1.64 1.49 1.67 1.81 1.91 1.93 1.73 1.59
0.45 0.40 0.39 0.43 0.46 0.52 0.59 0.68 0.85 1.01 1.07 1.18 1.41 1.49 1.44 1.40 1.46 1.56 1.49 1.36 1.25 1.13 1.25 1.37 1.45 1.40 1.39 1.46 1.65 1.63 1.65 1.71 1.67 1.66 1.84 1.81 1.71 1.72 1.72 1.93 2.17 2.24 2.04
0.47 0.51 0.38 0.37 0.40 0.40 0.48 0.59 0.74 0.95 1.14 1.15 1.14 1.17 1.36 1.42 1.51 1.52 1.36 1.31 1.25 1.21 1.23 1.20 1.27 1.29 1.29 1.40 1.67 1.69 1.73 1.87 1.85 1.83 1.88 1.88 1.82 1.87 1.83 1.90 2.13 2.30 2.32
0.44 0.47 0.35 0.30 0.35 0.38 0.45 0.58 0.70 0.96 1.15 1.07 1.09 1.18 1.34 1.41 1.41 1.51 1.47 1.37 1.29 1.26 1.20 1.15 1.17 1.17 1.14 1.23 1.41 1.56 1.74 1.87 1.92 1.89 1.91 1.91 1.99 2.03 1.91 1.96 2.01 2.17 2.35
0.46 0.49 0.43 0.45 0.47 0.50 0.55 0.66 0.74 0.88 0.99 1.03 1.12 1.18 1.28 1.32 1.27 1.30 1.37 1.41 1.32 1.25 1.25 1.27 1.23 1.12 1.10 1.20 1.35 1.52 1.71 1.87 1.97 2.04 2.08 1.92 1.97 2.08 2.02 2.01 2.02 2.10 2.33
0.58 0.55 0.58 0.62 0.57 0.57 0.68 0.77 0.83 0.86 0.96 1.13 1.14 1.11 1.16 1.11 1.11 1.15 1.20 1.28 1.31 1.33 1.35 1.37 1.32 1.29 1.35 1.47 1.54 1.59 1.71 1.86 1.95 2.02 1.99 1.96 2.06 1.99 2.02 2.06 2.05 2.03 2.03
0.56 0.50 0.53 0.54 0.57 0.61 0.67 0.76 0.83 0.88 0.97 0.99 1.00 1.01 1.02 1.04 1.11 1.16 1.17 1.19 1.19 1.27 1.32 1.33 1.40 1.45 1.52 1.57 1.57 1.55 1.58 1.67 1.77 1.76 1.67 1.61 1.68 1.76 1.86 1.84 1.85 1.90 1.96
0.53 0.43 0.39 0.49 0.61 0.67 0.68 0.73 0.81 0.89 1.02 1.03 0.99 0.99 1.01 1.03 1.05 1.07 1.07 1.09 1.15 1.18 1.35 1.39 1.49 1.57 1.55 1.46 1.50 1.51 1.44 1.62 1.59 1.46 1.42 1.43 1.51 1.52 1.58 1.51 1.57 1.71 1.79
0.53 0.50 0.48 0.56 0.61 0.62 0.62 0.60 0.63 0.75 0.92 0.98 1.03 1.05 1.05 0.99 1.03 1.04 1.02 1.06 1.16 1.27 1.40 1.44 1.55 1.59 1.45 1.50 1.54 1.55 1.53 1.58 1.54 1.47 1.41 1.31 1.30 1.27 1.30 1.35 1.41 1.53 1.65
0.47 0.54 0.57 0.61 0.60 0.59 0.55 0.55 0.55 0.67 0.94 1.02 1.00 1.08 1.16 1.08 1.14 1.17 1.16 1.19 1.26 1.36 1.43 1.55 1.59 1.59 1.64 1.57 1.46 1.49 1.44 1.49 1.53 1.56 1.56 1.31 1.15 1.21 1.20 1.33 1.31 1.27 1.31
0.45 0.53 0.54 0.54 0.56 0.56 0.56 0.54 0.55 0.63 0.85 1.01 1.05 1.22 1.36 1.27 1.28 1.29 1.32 1.38 1.45 1.49 1.59 1.64 1.57 1.58 1.63 1.56 1.32 1.25 1.17 1.26 1.38 1.47 1.52 1.50 1.40 1.36 1.37 1.42 1.39 1.29 1.27
0.54 0.53 0.56 0.58 0.63 0.68 0.66 0.63 0.72 0.84 0.97 1.08 1.19 1.38 1.53 1.59 1.57 1.53 1.62 1.67 1.70 1.75 1.82 1.89 1.86 1.77 1.74 1.55 1.23 1.12 1.09 1.23 1.30 1.34 1.34 1.32 1.22 1.21 1.13 1.16 1.22 1.24 1.23
0.59 0.63 0.70 0.70 0.70 0.77 0.77 0.79 0.89 1.07 1.20 1.23 1.26 1.34 1.51 1.61 1.65 1.65 1.81 1.95 2.00 2.00 2.03 1.94 1.81 1.72 1.70 1.61 1.30 1.13 1.11 1.25 1.32 1.40 1.38 1.35 1.28 1.22 1.08 1.05 1.12 1.11 1.13
0.55 0.58 0.62 0.69 0.73 0.79 0.86 0.97 1.05 1.16 1.19 1.19 1.22 1.29 1.51 1.77 1.81 1.87 1.94 2.05 2.13 2.18 2.19 2.09 1.98 1.86 1.81 1.76 1.43 1.25 1.21 1.30 1.36 1.31 1.32 1.29 1.26 1.07 0.95 0.95 1.00 1.01 1.01
0.61 0.61 0.60 0.66 0.73 0.85 1.00 1.09 1.11 1.15 1.21 1.22 1.26 1.37 1.60 1.70 1.80 1.95 2.00 2.15 2.27 2.28 2.25 2.24 2.11 2.04 1.95 1.70 1.42 1.23 1.22 1.32 1.43 1.43 1.39 1.36 1.22 0.98 0.85 0.76 0.73 0.76 0.77
0.66 0.72 0.71 0.72 0.77 0.89 1.09 1.22 1.22 1.22 1.21 1.18 1.21 1.31 1.45 1.54 1.67 1.75 1.74 1.83 1.96 1.98 2.01 2.04 2.00 2.01 2.11 1.97 1.54 1.24 1.18 1.26 1.37 1.51 1.59 1.39 1.20 1.06 0.92 0.85 0.76 0.69 0.66
0.77 0.77 0.76 0.78 0.81 0.86 1.04 1.17 1.17 1.18 1.18 1.14 1.10 1.19 1.35 1.43 1.50 1.62 1.64 1.73 1.80 1.86 1.93 1.95 1.92 1.93 2.08 2.08 1.76 1.44 1.25 1.17 1.16 1.21 1.24 1.16 1.10 0.99 0.88 0.80 0.71 0.63 0.66
0.68 0.68 0.69 0.74 0.75 0.80 0.98 1.13 1.15 1.16 1.20 1.16 1.11 1.17 1.28 1.37 1.45 1.56 1.65 1.67 1.70 1.68 1.71 1.75 1.72 1.72 1.84 1.84 1.60 1.39 1.26 1.16 1.14 1.16 1.22 1.20 1.19 1.09 0.99 0.92 0.86 0.85 0.86
0.63 0.66 0.70 0.70 0.66 0.72 0.84 0.95 1.12 1.26 1.31 1.23 1.15 1.13 1.14 1.21 1.28 1.36 1.37 1.30 1.27 1.26 1.24 1.28 1.21 1.20 1.36 1.37 1.14 1.01 1.04 1.04 1.02 1.04 1.12 1.19 1.23 1.18 1.11 1.06 1.00 1.00 0.98